Theta_e
308 308 307 309 309 309 308 307 305 305 307 308 309 309 307 303 299 296 295 294 293 292 289 288 287 286 286 286 286 287 286 286 287 284 284 283 283 283 282 282 282 283 283
307 306 306 307 306 306 305 303 302 304 305 304 304 303 302 298 295 294 293 292 291 289 287 286 286 285 285 286 287 285 285 285 285 285 284 283 283 282 283 282 282 282 282
306 305 305 305 305 304 303 301 302 303 302 299 299 299 299 296 291 291 292 290 288 288 287 286 286 285 285 289 286 284 284 284 285 284 284 283 283 282 282 282 282 282 282
305 305 304 305 304 303 302 300 301 303 302 299 297 298 298 295 290 288 288 287 287 287 286 286 286 286 291 290 285 284 284 284 284 283 282 282 282 282 281 281 281 282 281
305 304 303 303 302 302 301 299 298 300 301 300 295 293 292 290 288 287 287 286 286 285 285 285 286 289 292 287 286 285 284 283 283 282 282 282 282 282 282 282 281 281 281
304 303 302 302 301 300 299 296 296 298 297 294 291 291 289 288 286 287 286 286 285 285 284 284 286 290 289 285 287 285 284 283 283 282 282 282 282 282 282 281 281 280 280
303 302 301 300 300 298 296 295 294 294 293 292 290 289 288 286 285 286 286 285 285 285 284 284 286 289 290 289 286 282 282 282 283 282 282 282 282 282 282 281 281 280 279
301 300 299 298 298 296 294 293 293 292 292 290 289 288 286 285 284 285 284 285 284 284 284 285 286 289 290 289 285 282 282 282 283 282 282 282 282 282 281 279 279 279 279
298 297 296 296 295 293 292 291 290 290 288 288 287 286 285 284 284 285 283 284 284 283 284 284 286 289 290 290 287 281 281 282 281 281 280 280 281 281 281 281 281 281 280
295 295 295 294 293 292 291 290 289 288 287 286 285 285 284 283 285 285 283 283 283 283 283 288 288 290 291 289 288 285 284 284 282 281 281 281 280 280 280 280 279 279 279
292 292 293 292 292 291 290 289 288 286 285 284 283 283 283 283 285 285 284 283 283 283 283 288 290 290 290 288 286 286 285 284 282 281 281 281 281 279 278 277 277 276 275
290 290 290 290 289 289 288 287 286 284 283 282 282 282 282 282 284 285 284 284 284 284 284 287 289 290 290 287 285 285 284 282 281 282 282 282 280 278 277 276 274 273 272
288 287 287 287 287 287 286 285 284 283 283 282 282 282 282 283 284 285 285 284 283 284 286 287 289 289 288 286 285 285 284 283 283 282 282 281 279 277 275 274 272 271 270
286 286 286 286 285 285 285 285 284 284 284 283 283 283 282 282 283 284 286 286 285 286 287 288 287 288 287 285 284 283 283 283 282 281 280 278 276 275 273 272 270 270 268
285 285 286 285 285 285 285 285 285 285 284 284 284 284 283 282 282 283 285 285 286 286 286 286 286 285 283 282 282 281 281 280 279 278 277 275 274 272 271 270 269 268 267
285 285 285 286 286 285 285 285 285 285 285 286 286 286 285 286 285 284 284 284 285 286 286 285 284 283 282 281 280 278 278 277 276 275 274 273 271 270 269 268 267 267 266
287 286 286 286 285 284 285 285 285 286 286 286 286 286 286 286 286 286 286 285 285 285 284 283 282 281 281 280 279 277 275 274 273 272 271 270 269 268 267 266 266 266 266
286 286 286 285 285 285 285 285 285 284 284 283 283 284 284 285 285 285 285 285 284 284 282 280 280 280 279 277 276 274 273 272 271 269 268 268 267 266 266 266 265 265 264
284 284 285 285 284 284 284 284 285 285 284 281 280 280 281 282 282 283 283 282 281 280 279 277 276 275 275 274 273 272 271 270 269 267 267 266 265 265 264 264 264 264 263
284 283 283 283 282 282 282 282 282 283 281 280 280 279 279 280 280 280 280 279 277 275 274 274 274 274 273 272 272 271 270 267 267 266 265 265 264 264 263 263 262 262 262
280 280 280 280 280 279 280 280 279 279 279 279 278 277 277 279 276 277 277 276 275 275 274 274 273 273 273 272 270 268 267 266 266 265 264 264 263 263 262 262 262 262 261
277 277 277 277 277 277 277 277 277 277 276 276 275 275 275 277 275 275 275 274 274 274 273 272 272 271 270 269 268 267 266 265 264 264 263 263 262 262 261 261 261 260 260
275 275 274 274 273 273 274 273 274 274 273 273 272 273 273 273 273 272 272 272 271 270 270 269 268 267 267 267 266 266 265 265 264 263 263 262 262 262 261 260 260 260 260
272 271 271 271 271 271 270 270 270 270 270 270 270 269 269 269 269 269 269 269 268 267 267 266 266 266 266 265 265 265 264 264 263 263 262 262 261 261 260 260 259 259 259
269 269 268 268 268 268 268 267 267 267 267 267 267 267 267 267 267 266 266 266 266 265 265 265 265 265 265 264 264 264 264 263 263 262 262 261 260 260 259 259 259 258 258
267 267 266 266 266 266 266 265 265 265 265 265 265 265 265 265 264 264 264 264 264 264 264 264 264 264 264 263 263 263 262 262 262 261 261 260 260 260 259 259 259 258 258
Wind_Speed
20 22 25 26 27 27 27 27 29 32 35 36 39 42 41 39 38 36 35 34 34 32 28 27 25 24 21 19 16 12 10 9 7 4 9 9 10 10 10 11 15 17 19
19 22 24 25 26 27 27 27 31 35 33 32 35 39 40 39 39 38 36 35 36 34 32 30 28 25 23 19 14 13 11 10 8 8 7 8 10 10 13 14 16 18 21
18 21 23 26 28 29 29 28 34 34 32 31 33 36 40 40 40 38 39 38 37 36 36 35 32 29 25 18 16 15 12 11 9 9 8 9 11 12 14 16 17 19 18
21 22 25 27 30 29 28 29 35 36 34 32 34 37 40 41 40 39 37 37 37 37 36 35 33 30 22 19 18 15 14 11 11 11 11 12 13 13 17 19 19 13 20
20 23 27 24 27 27 28 29 33 37 36 35 35 36 37 39 41 42 39 39 38 36 34 33 33 27 18 19 18 16 16 15 14 13 13 12 13 12 13 13 17 19 21
24 27 24 25 27 29 29 32 34 35 34 34 34 36 38 39 40 43 42 42 39 38 37 33 31 23 20 19 16 15 17 17 17 15 15 14 15 13 14 16 16 17 12
31 30 29 28 29 30 30 32 34 34 33 33 33 35 37 38 41 44 43 42 41 39 38 37 31 23 20 21 18 19 19 18 18 17 19 19 16 14 15 17 17 19 23
27 28 29 29 30 30 31 32 33 33 34 34 34 35 35 37 38 38 40 39 37 36 37 37 33 24 17 17 17 20 20 19 19 20 22 23 21 17 18 22 24 28 27
21 22 24 26 28 28 29 29 28 28 29 30 31 32 33 33 35 37 38 37 36 35 34 32 29 20 14 15 18 21 18 21 22 24 23 23 21 20 19 21 20 17 21
17 19 19 22 25 25 24 24 23 25 25 25 26 28 29 29 31 34 35 34 32 33 31 28 25 21 17 21 22 25 25 26 24 24 23 21 19 19 17 16 19 18 18
11 12 14 16 19 21 21 21 21 20 20 21 21 22 24 24 30 29 34 36 36 35 36 31 28 20 23 25 26 26 26 21 18 16 19 19 18 14 12 13 13 15 15
5 8 10 12 14 16 18 18 18 19 20 19 21 20 23 26 28 28 31 35 36 37 35 33 25 24 26 28 27 25 20 17 18 17 15 12 10 10 8 8 10 12 14
7 8 10 11 12 15 18 19 18 18 18 17 18 18 21 26 26 29 29 25 31 31 27 30 23 22 22 21 21 20 17 20 18 16 14 12 9 9 12 14 10 11 11
10 11 13 14 14 14 14 17 17 17 15 15 16 15 16 20 24 25 28 25 22 23 25 22 22 23 24 20 17 15 19 20 18 16 12 11 11 10 8 8 8 8 10
11 10 11 14 15 14 11 12 13 14 17 17 15 17 20 20 26 30 27 27 25 24 22 22 22 21 19 18 16 18 18 17 16 15 14 11 10 9 8 7 6 7 8
16 11 11 11 10 13 14 11 7 7 9 10 12 17 19 17 21 26 26 24 23 21 22 22 19 21 19 19 19 16 16 15 15 14 13 12 11 9 7 7 6 7 8
12 13 10 10 10 11 13 13 13 9 7 6 7 8 10 15 15 18 24 26 24 21 21 16 16 17 16 15 16 16 16 14 15 14 11 11 11 9 9 7 6 7 8
8 10 11 9 9 9 10 9 11 11 9 6 5 7 9 10 11 13 14 16 17 19 15 14 11 13 15 16 16 16 15 15 13 12 12 11 11 10 8 8 7 9 10
8 7 9 9 9 8 10 10 8 10 10 10 7 6 8 8 9 10 13 16 14 13 14 11 11 12 14 15 15 15 14 13 12 13 12 13 12 11 10 10 11 12 12
10 9 7 7 9 8 8 10 9 9 9 8 8 9 14 13 12 13 14 13 10 9 10 12 13 13 13 13 13 13 13 14 14 14 14 13 12 12 11 12 13 12 12
12 12 10 9 9 8 9 9 7 7 8 8 7 8 10 7 7 9 10 10 10 9 9 10 11 12 13 13 14 15 15 15 15 15 15 15 14 14 14 14 13 13 14
12 12 13 12 10 9 10 8 7 6 5 5 5 7 5 7 7 7 8 9 9 10 11 12 12 13 14 15 16 16 16 16 16 16 15 15 15 14 14 14 14 13 14
13 14 15 14 12 11 11 10 8 6 5 3 4 6 5 4 6 7 8 9 10 11 12 12 13 14 14 15 15 16 17 17 17 16 16 15 15 15 15 15 14 15 16
15 15 15 16 15 13 12 11 9 8 6 4 3 1 2 4 5 6 7 8 10 11 12 13 13 14 15 15 16 16 17 17 17 16 16 16 16 16 16 16 16 17 17
16 17 17 15 14 12 10 9 8 6 6 4 3 2 3 4 6 8 10 11 12 13 14 14 15 16 17 18 18 17 17 17 19 19 19 18 19 19 18 17 17 17 16
17 17 15 13 12 10 8 7 6 6 4 4 5 5 6 8 9 10 11 13 14 15 16 17 18 18 19 20 20 19 20 20 20 20 20 20 21 21 20 20 19 20 19
Wind_Direction
212 215 219 221 218 216 216 210 209 210 215 217 218 215 214 212 209 204 204 201 197 195 189 183 178 176 168 162 159 165 166 164 131 149 192 222 239 253 268 288 289 301 308
220 218 216 218 217 218 216 211 213 218 220 221 218 215 214 211 208 201 201 199 195 190 183 179 175 171 165 162 170 168 172 172 169 178 205 231 260 261 277 286 295 301 310
221 221 218 215 217 215 214 211 217 219 220 219 219 217 213 212 208 205 206 200 196 191 186 181 176 170 165 172 175 175 181 190 193 205 221 253 268 279 288 295 300 304 308
216 218 222 216 215 213 212 209 215 218 218 219 219 217 215 212 209 205 204 197 193 190 188 183 177 172 172 177 179 185 194 194 207 222 240 254 265 277 289 299 306 300 296
221 223 225 223 219 212 209 207 211 217 219 221 217 214 212 211 208 204 202 196 191 186 185 182 175 173 177 182 184 196 207 206 213 226 241 250 259 265 269 287 286 297 295
225 229 227 222 216 213 210 208 214 216 217 217 215 213 211 210 205 206 202 196 193 190 183 179 174 176 179 185 193 214 226 219 225 231 237 240 256 260 276 280 285 292 304
226 226 223 217 214 211 210 213 216 216 215 217 216 214 213 210 206 206 205 200 193 190 186 179 178 180 189 200 199 220 231 234 243 252 253 252 260 264 278 279 278 281 282
229 229 229 222 216 211 211 212 212 213 215 215 214 215 211 210 204 197 200 202 195 192 190 184 187 184 199 208 210 228 233 243 249 253 261 272 275 272 266 277 288 289 286
238 234 231 223 214 208 206 208 209 207 206 209 211 210 206 203 195 188 192 197 194 194 192 188 194 197 221 232 225 237 241 254 261 263 263 266 269 272 275 283 281 285 287
243 243 236 226 218 209 209 205 205 209 207 206 204 210 206 201 184 183 189 189 188 190 190 194 204 220 246 245 239 238 242 250 260 267 269 273 276 279 275 265 273 283 292
260 240 226 224 218 214 206 199 200 193 195 190 191 195 197 191 177 186 201 198 197 194 197 201 212 233 252 247 244 246 249 257 256 256 271 283 288 278 273 278 272 277 295
215 197 198 203 201 196 189 184 185 182 173 166 168 169 182 186 198 195 208 205 205 202 202 209 222 240 259 252 245 250 255 235 247 258 256 260 231 269 267 256 265 277 275
152 157 158 168 177 181 172 160 155 164 158 156 161 171 184 194 194 201 199 202 205 207 206 215 235 255 268 257 241 241 234 232 233 238 241 239 252 252 266 290 287 282 291
137 142 147 145 144 157 156 157 157 160 159 166 174 176 170 178 188 191 198 202 205 207 214 228 251 262 267 250 241 227 227 228 224 225 230 241 250 267 268 271 274 286 296
125 127 133 137 139 144 150 160 162 171 177 174 182 177 174 185 197 200 196 201 207 212 223 237 237 228 225 222 214 217 220 224 229 241 243 247 244 254 262 260 272 278 290
127 131 135 123 140 142 137 136 150 163 181 190 201 204 209 208 209 210 214 212 206 210 226 220 209 207 204 200 207 217 218 223 227 228 231 236 244 242 246 252 266 271 289
133 137 139 144 145 140 135 127 116 128 162 156 168 190 217 219 217 223 223 226 224 214 213 216 206 203 202 202 205 207 208 220 220 220 224 229 236 241 246 256 256 268 280
149 147 146 157 152 154 144 141 153 151 141 126 147 174 198 204 204 208 208 206 202 205 208 208 212 211 202 203 204 208 206 215 216 222 228 231 232 233 234 239 247 257 264
127 135 132 136 142 154 143 140 152 148 137 132 137 127 123 133 148 167 175 179 177 190 199 190 202 198 200 201 206 205 209 218 225 225 223 227 229 228 231 235 240 246 254
110 120 122 130 133 141 139 138 135 135 134 142 138 143 146 142 149 154 162 172 179 185 197 201 204 205 205 205 209 215 220 221 222 224 223 228 227 231 232 234 239 242 246
115 112 108 113 116 126 118 120 139 141 140 144 154 164 164 158 154 176 181 186 195 201 207 212 213 215 219 222 225 224 223 225 225 225 224 225 227 225 231 227 234 245 255
106 106 101 93 96 93 92 103 109 117 130 148 147 137 159 175 176 187 200 213 221 227 229 230 232 233 233 232 230 227 226 225 226 228 226 225 227 235 233 233 239 243 247
83 84 84 81 77 73 76 76 79 80 91 115 148 168 201 205 220 230 238 243 242 239 238 238 237 238 237 236 234 232 232 233 234 234 229 229 232 231 233 237 239 244 246
77 77 79 77 74 71 68 64 63 67 74 77 96 164 213 232 236 242 247 251 252 252 253 251 249 250 250 246 243 241 241 240 241 239 238 237 237 237 232 234 238 240 246
73 71 70 67 65 63 56 51 49 45 39 32 6 321 288 277 269 266 266 264 262 262 263 262 261 259 257 256 255 253 250 245 245 247 244 241 242 242 242 244 244 246 250
64 62 59 57 54 50 47 39 26 17 2 334 320 310 299 291 286 283 281 279 277 274 272 270 268 265 264 262 259 257 255 253 250 249 246 245 244 243 242 246 248 249 249